Frankfort, MI

9:53 AM EST on February 19, 2017 (GMT -0500)
Frankfort

Weather History for KFKS - February, 2013

Change the Weather History Date:

Sunday, February 17, 2013

  Actual Average (KMBL) Record (KMBL)
Temperature  
Mean Temperature 15 °F -  
Max Temperature 22 °F 32 °F 51 °F (2011)
Min Temperature 9 °F 15 °F -22 °F (1979)
Degree Days  
Heating Degree Days 50    
Moisture  
Dew Point 10 °F    
Average Humidity 78    
Maximum Humidity 85    
Minimum Humidity 68    
Precipitation  
Precipitation 0.00 in - - ()
Sea Level Pressure  
Sea Level Pressure 30.12 in    
Wind  
Wind Speed 3 mph (SE)    
Max Wind Speed 10 mph    
Max Gust Speed -    
Visibility 8 miles    
Events Snow    
Averages and records for this station are not official NWS values.
T = Trace of Precipitation, MM = Missing Value Source: NWS Daily Summary

Daily Weather History Graph

Daily Weather History Graph

Search for Another Location

Airport or City:

Trip Planner

Search our weather history database for the weather conditions in past years. The results will help you decide how hot, cold, wet, or windy it might be!

Date:

Astronomy

Feb. 17, 2013 Rise Set
Actual Time 7:41 AM EST 6:16 PM EST
Civil Twilight 7:11 AM EST 6:46 PM EST
Nautical Twilight 6:37 AM EST 7:20 PM EST
Astronomical Twilight 6:04 AM EST 7:54 PM EST
Moon 11:14 AM EST (2/17) 1:30 AM EST (2/17)
Length of Visible Light 11h 34m
Length of Day
10h 35m
Waxing Crescent, 49% of the Moon is Illuminated
Feb 17
Waxing Crescent
Feb 17
First Quarter
Feb 25
Full
Mar 4
Last Quarter
Mar 11
New

Hourly Weather History & Observations

Time (EST) Temp. Windchill Dew Point Humidity Pressure Visibility Wind Dir Wind Speed Gust Speed Precip Events Conditions
12:14 AM 12.2 °F 4.3 °F 7.9 °F 83% 30.12 in 3.0 mi East 4.6 mph - N/A Snow Light Snow
12:34 AM 12.2 °F 6.1 °F 7.7 °F 82% 30.12 in 3.0 mi ESE 3.5 mph - N/A Snow Light Snow
12:54 AM 12.0 °F 5.9 °F 7.5 °F 82% 30.12 in 5.0 mi ESE 3.5 mph - N/A Snow Light Snow
1:14 AM 11.7 °F 5.5 °F 6.8 °F 81% 30.12 in 7.0 mi ESE 3.5 mph - N/A   Overcast
1:35 AM 11.1 °F 4.9 °F 5.5 °F 78% 30.13 in 10.0 mi SE 3.5 mph - N/A   Overcast
1:55 AM 10.2 °F - 5.2 °F 80% 30.13 in 10.0 mi Calm Calm - N/A   Overcast
2:15 AM 9.3 °F - 4.1 °F 79% 30.13 in 10.0 mi Calm Calm - N/A   Overcast
2:35 AM 9.9 °F - 5.2 °F 81% 30.13 in 5.0 mi Calm Calm - N/A Snow Light Snow
2:55 AM 11.3 °F 5.1 °F 5.9 °F 79% 30.13 in 2.0 mi ESE 3.5 mph - N/A Snow Light Snow
3:35 AM 10.4 °F 4.0 °F 6.1 °F 83% 30.13 in 7.0 mi SE 3.5 mph - N/A Snow Light Snow
3:55 AM 10.2 °F 3.8 °F 5.4 °F 81% 30.13 in 10.0 mi SSE 3.5 mph - N/A   Overcast
4:15 AM 10.2 °F - 4.8 °F 79% 30.13 in 10.0 mi Calm Calm - N/A   Overcast
4:35 AM 10.4 °F - 4.6 °F 78% 30.13 in 5.0 mi Calm Calm - N/A Snow Light Snow
4:56 AM 10.2 °F - 5.5 °F 81% 30.13 in 2.5 mi Calm Calm - N/A Snow Light Snow
5:16 AM 10.0 °F - 5.7 °F 83% 30.14 in 3.0 mi Calm Calm - N/A Snow Light Snow
5:36 AM 10.2 °F - 5.9 °F 83% 30.14 in 3.0 mi Calm Calm - N/A Snow Light Snow
5:51 AM 10.2 °F - 6.3 °F 84% 30.14 in 3.0 mi Calm Calm - N/A Snow Light Snow
6:11 AM 10.4 °F 4.0 °F 6.4 °F 84% 30.14 in 4.0 mi ESE 3.5 mph - N/A Snow Light Snow
6:31 AM 10.4 °F - 6.4 °F 84% 30.14 in 5.0 mi Calm Calm - N/A Snow Light Snow
6:51 AM 10.4 °F - 6.8 °F 85% 30.14 in 4.0 mi Calm Calm - N/A Snow Light Snow
7:11 AM 10.4 °F - 6.8 °F 85% 30.15 in 10.0 mi Calm Calm - N/A   Overcast
7:31 AM 10.9 °F - 6.8 °F 83% 30.15 in 4.0 mi Calm Calm - N/A Snow Light Snow
7:52 AM 11.1 °F 4.9 °F 6.8 °F 83% 30.15 in 2.5 mi SE 3.5 mph - N/A Snow Light Snow
8:12 AM 10.8 °F 4.5 °F 6.8 °F 84% 30.15 in 1.2 mi SE 3.5 mph - N/A Snow Light Snow
8:52 AM 11.1 °F - 7.3 °F 85% 30.16 in 1.8 mi Calm Calm - N/A Snow Light Snow
9:12 AM 11.3 °F - 7.3 °F 84% 30.16 in 4.0 mi Calm Calm - N/A Snow Light Snow
9:52 AM 12.2 °F 6.1 °F 7.5 °F 82% 30.17 in 5.0 mi SE 3.5 mph - N/A Snow Light Snow
10:12 AM 12.7 °F - 8.1 °F 82% 30.17 in 4.0 mi Calm Calm - N/A Snow Light Snow
10:32 AM 13.5 °F - 8.8 °F 82% 30.17 in 7.0 mi Calm Calm - N/A Snow Light Snow
10:53 AM 14.4 °F 8.6 °F 9.1 °F 80% 30.17 in 10.0 mi SE 3.5 mph - N/A   Overcast
11:13 AM 14.9 °F 9.2 °F 9.5 °F 79% 30.18 in 10.0 mi SE 3.5 mph - N/A Snow Light Snow
11:33 AM 15.8 °F 10.2 °F 9.5 °F 76% 30.18 in 10.0 mi SE 3.5 mph - N/A Snow Light Snow
11:53 AM 16.2 °F - 9.7 °F 76% 30.17 in 10.0 mi Calm Calm - N/A   Overcast
12:33 PM 17.1 °F - 9.9 °F 73% 30.17 in 10.0 mi Calm Calm - N/A Snow Light Snow
12:53 PM 17.6 °F 12.3 °F 10.6 °F 74% 30.15 in 10.0 mi SSE 3.5 mph - N/A Snow Light Snow
1:13 PM 17.6 °F 12.3 °F 11.1 °F 76% 30.15 in 10.0 mi SE 3.5 mph - N/A Snow Light Snow
1:33 PM 18.3 °F - 11.7 °F 75% 30.15 in 10.0 mi Calm Calm - N/A Snow Light Snow
2:14 PM 19.8 °F 10.8 °F 12.4 °F 73% 30.13 in 10.0 mi South 6.9 mph - N/A   Overcast
2:34 PM 19.4 °F 14.3 °F 12.7 °F 75% 30.14 in 10.0 mi South 3.5 mph - N/A   Overcast
2:54 PM 19.4 °F - 13.5 °F 78% 30.13 in 10.0 mi Calm Calm - N/A Snow Light Snow
3:14 PM 20.1 °F 13.6 °F 13.8 °F 77% 30.13 in 7.0 mi South 4.6 mph - N/A Snow Light Snow
3:34 PM 19.9 °F - 14.5 °F 80% 30.13 in 5.0 mi Calm Calm - N/A Snow Light Snow
3:54 PM 20.8 °F 12.1 °F 14.0 °F 75% 30.13 in 10.0 mi South 6.9 mph - N/A Snow Light Snow
4:14 PM 20.8 °F 12.1 °F 13.6 °F 74% 30.12 in 10.0 mi South 6.9 mph - N/A   Overcast
4:34 PM 21.2 °F 14.9 °F 13.1 °F 71% 30.12 in 10.0 mi South 4.6 mph - N/A   Overcast
4:54 PM 21.6 °F 15.3 °F 12.7 °F 69% 30.11 in 10.0 mi South 4.6 mph - N/A   Overcast
5:15 PM 21.7 °F 14.3 °F 12.6 °F 68% 30.11 in 10.0 mi South 5.8 mph - N/A   Mostly Cloudy
5:35 PM 21.7 °F 14.3 °F 12.7 °F 68% 30.11 in 10.0 mi SSE 5.8 mph - N/A   Mostly Cloudy
5:55 PM 20.7 °F 13.0 °F 13.5 °F 74% 30.10 in 10.0 mi SE 5.8 mph - N/A   Mostly Cloudy
6:15 PM 18.5 °F 10.4 °F 12.2 °F 76% 30.09 in 10.0 mi SSE 5.8 mph - N/A   Scattered Clouds
6:35 PM 19.6 °F 10.6 °F 13.5 °F 77% 30.09 in 10.0 mi SSE 6.9 mph - N/A Snow Light Snow
6:55 PM 18.9 °F 10.8 °F 13.3 °F 79% 30.09 in 10.0 mi SSE 5.8 mph - N/A   Overcast
7:15 PM 19.0 °F 11.1 °F 13.5 °F 79% 30.09 in 10.0 mi SE 5.8 mph - N/A   Overcast
7:35 PM 18.3 °F 10.2 °F 13.1 °F 80% 30.10 in 10.0 mi SE 5.8 mph - N/A   Mostly Cloudy
7:56 PM 18.1 °F 8.9 °F 12.6 °F 79% 30.09 in 10.0 mi SE 6.9 mph - N/A   Mostly Cloudy
8:16 PM 18.0 °F 9.8 °F 12.6 °F 79% 30.08 in 10.0 mi SE 5.8 mph - N/A   Scattered Clouds
8:36 PM 18.0 °F 8.7 °F 12.2 °F 78% 30.08 in 10.0 mi SE 6.9 mph - N/A   Clear
8:56 PM 18.1 °F 10.0 °F 12.2 °F 78% 30.09 in 10.0 mi SE 5.8 mph - N/A   Clear
9:16 PM 18.3 °F 9.1 °F 12.2 °F 77% 30.09 in 10.0 mi SE 6.9 mph - N/A   Mostly Cloudy
9:31 PM 18.5 °F 8.4 °F 12.0 °F 76% 30.08 in 10.0 mi SE 8.1 mph - N/A   Scattered Clouds
9:51 PM 18.7 °F 9.5 °F 11.8 °F 75% 30.08 in 10.0 mi SSE 6.9 mph - N/A   Scattered Clouds
10:11 PM 18.9 °F 7.2 °F 11.3 °F 72% 30.08 in 10.0 mi SSE 10.4 mph - N/A   Scattered Clouds
10:31 PM 19.0 °F 9.0 °F 11.3 °F 72% 30.07 in 10.0 mi SE 8.1 mph - N/A   Scattered Clouds
10:52 PM 18.9 °F 8.8 °F 11.5 °F 73% 30.06 in 10.0 mi SE 8.1 mph - N/A   Scattered Clouds
11:12 PM 18.7 °F 9.5 °F 11.5 °F 74% 30.06 in 10.0 mi SE 6.9 mph - N/A   Mostly Cloudy
11:32 PM 18.7 °F 8.6 °F 11.3 °F 73% 30.06 in 10.0 mi SE 8.1 mph - N/A   Scattered Clouds
11:52 PM 19.2 °F 9.3 °F 11.3 °F 71% 30.05 in 10.0 mi SE 8.1 mph - N/A   Clear